Time,TemperatureF,DewpointF,PressureIn,WindDirection,WindDirectionDegrees,WindSpeedMPH,WindSpeedGustMPH,Humidity,HourlyPrecipIn,Conditions,Clouds,dailyrainin,SoftwareType,DateUTC
2013-02-03 00:00:00,26.0,-6.0,-100.00,North,-999,-999.0,-999.0,23,-99.99,,,-99.99,,2013-02-03 07:00:00,
2013-02-03 00:32:00,26.0,-6.0,-100.00,North,-999,-999.0,-999.0,23,-99.99,,,-99.99,,2013-02-03 07:32:00,
2013-02-03 00:42:00,26.0,-6.0,-100.00,North,-999,-999.0,-999.0,23,-99.99,,,-99.99,,2013-02-03 07:42:00,
2013-02-03 00:52:00,26.0,-6.0,-100.00,North,-999,-999.0,-999.0,23,-99.99,,,-99.99,,2013-02-03 07:52:00,
2013-02-03 01:00:00,27.0,-8.0,-100.00,North,-999,-999.0,-999.0,21,-99.99,,,-99.99,,2013-02-03 08:00:00,
2013-02-03 01:32:00,27.0,-8.0,-100.00,North,-999,-999.0,-999.0,21,-99.99,,,-99.99,,2013-02-03 08:32:00,
2013-02-03 01:42:00,27.0,-8.0,-100.00,North,-999,-999.0,-999.0,21,-99.99,,,-99.99,,2013-02-03 08:42:00,
2013-02-03 01:52:00,27.0,-8.0,-100.00,North,-999,-999.0,-999.0,21,-99.99,,,-99.99,,2013-02-03 08:52:00,
2013-02-03 02:00:00,27.0,-9.0,-100.00,North,-999,-999.0,-999.0,19,-99.99,,,-99.99,,2013-02-03 09:00:00,
2013-02-03 02:32:00,27.0,-9.0,-100.00,North,-999,-999.0,-999.0,19,-99.99,,,-99.99,,2013-02-03 09:32:00,
2013-02-03 02:42:00,27.0,-9.0,-100.00,North,-999,-999.0,-999.0,19,-99.99,,,-99.99,,2013-02-03 09:42:00,
2013-02-03 02:52:00,27.0,-9.0,-100.00,North,-999,-999.0,-999.0,19,-99.99,,,-99.99,,2013-02-03 09:52:00,
2013-02-03 03:00:00,27.0,-8.0,-100.00,North,-999,-999.0,-999.0,20,-99.99,,,-99.99,,2013-02-03 10:00:00,
2013-02-03 03:32:00,27.0,-8.0,-100.00,North,-999,-999.0,-999.0,20,-99.99,,,-99.99,,2013-02-03 10:32:00,
2013-02-03 03:42:00,27.0,-8.0,-100.00,North,-999,-999.0,-999.0,20,-99.99,,,-99.99,,2013-02-03 10:42:00,
2013-02-03 03:52:00,27.0,-8.0,-100.00,North,-999,-999.0,-999.0,20,-99.99,,,-99.99,,2013-02-03 10:52:00,
2013-02-03 05:00:00,27.0,-11.0,-100.00,North,-999,-999.0,-999.0,18,-99.99,,,-99.99,,2013-02-03 12:00:00,
2013-02-03 05:32:00,27.0,-11.0,-100.00,North,-999,-999.0,-999.0,18,-99.99,,,-99.99,,2013-02-03 12:32:00,
2013-02-03 05:42:00,27.0,-11.0,-100.00,North,-999,-999.0,-999.0,18,-99.99,,,-99.99,,2013-02-03 12:42:00,
2013-02-03 05:53:00,27.0,-11.0,-100.00,North,-999,-999.0,-999.0,18,-99.99,,,-99.99,,2013-02-03 12:53:00,
2013-02-03 06:00:00,27.0,-9.0,-100.00,North,-999,-999.0,-999.0,19,-99.99,,,-99.99,,2013-02-03 13:00:00,
2013-02-03 06:32:00,27.0,-9.0,-100.00,North,-999,-999.0,-999.0,19,-99.99,,,-99.99,,2013-02-03 13:32:00,
2013-02-03 06:42:00,27.0,-9.0,-100.00,North,-999,-999.0,-999.0,19,-99.99,,,-99.99,,2013-02-03 13:42:00,
2013-02-03 06:52:00,27.0,-9.0,-100.00,North,-999,-999.0,-999.0,19,-99.99,,,-99.99,,2013-02-03 13:52:00,
2013-02-03 07:00:00,26.0,-10.0,-100.00,North,-999,-999.0,-999.0,19,-99.99,,,-99.99,,2013-02-03 14:00:00,
2013-02-03 07:32:00,26.0,-10.0,-100.00,North,-999,-999.0,-999.0,19,-99.99,,,-99.99,,2013-02-03 14:32:00,
2013-02-03 07:42:00,26.0,-10.0,-100.00,North,-999,-999.0,-999.0,19,-99.99,,,-99.99,,2013-02-03 14:42:00,
2013-02-03 07:52:00,26.0,-10.0,-100.00,North,-999,-999.0,-999.0,19,-99.99,,,-99.99,,2013-02-03 14:52:00,
2013-02-03 08:00:00,26.0,-8.0,-100.00,North,-999,-999.0,-999.0,21,-99.99,,,-99.99,,2013-02-03 15:00:00,
2013-02-03 08:33:00,26.0,-8.0,-100.00,North,-999,-999.0,-999.0,21,-99.99,,,-99.99,,2013-02-03 15:33:00,
2013-02-03 08:42:00,26.0,-8.0,-100.00,North,-999,-999.0,-999.0,21,-99.99,,,-99.99,,2013-02-03 15:42:00,
2013-02-03 08:52:00,26.0,-8.0,-100.00,North,-999,-999.0,-999.0,21,-99.99,,,-99.99,,2013-02-03 15:52:00,
2013-02-03 09:00:00,27.0,-6.0,-100.00,North,-999,-999.0,-999.0,23,-99.99,,,-99.99,,2013-02-03 16:00:00,
2013-02-03 09:33:00,27.0,-6.0,-100.00,North,-999,-999.0,-999.0,23,-99.99,,,-99.99,,2013-02-03 16:33:00,
2013-02-03 09:42:00,27.0,-6.0,-100.00,North,-999,-999.0,-999.0,23,-99.99,,,-99.99,,2013-02-03 16:42:00,
2013-02-03 09:52:00,27.0,-6.0,-100.00,North,-999,-999.0,-999.0,23,-99.99,,,-99.99,,2013-02-03 16:52:00,
2013-02-03 10:00:00,28.0,-6.0,-100.00,North,-999,-999.0,-999.0,21,-99.99,,,-99.99,,2013-02-03 17:00:00,
2013-02-03 10:32:00,28.0,-6.0,-100.00,North,-999,-999.0,-999.0,21,-99.99,,,-99.99,,2013-02-03 17:32:00,
2013-02-03 10:42:00,28.0,-6.0,-100.00,North,-999,-999.0,-999.0,21,-99.99,,,-99.99,,2013-02-03 17:42:00,
2013-02-03 10:52:00,28.0,-6.0,-100.00,North,-999,-999.0,-999.0,21,-99.99,,,-99.99,,2013-02-03 17:52:00,
2013-02-03 11:00:00,35.0,-7.0,-100.00,North,-999,-999.0,-999.0,16,-99.99,,,-99.99,,2013-02-03 18:00:00,
2013-02-03 11:33:00,35.0,-7.0,-100.00,North,-999,-999.0,-999.0,16,-99.99,,,-99.99,,2013-02-03 18:33:00,
2013-02-03 11:42:00,35.0,-7.0,-100.00,North,-999,-999.0,-999.0,16,-99.99,,,-99.99,,2013-02-03 18:42:00,
2013-02-03 11:52:00,35.0,-7.0,-100.00,North,-999,-999.0,-999.0,16,-99.99,,,-99.99,,2013-02-03 18:52:00,
2013-02-03 12:00:00,36.0,5.0,-100.00,North,-999,-999.0,-999.0,26,-99.99,,,-99.99,,2013-02-03 19:00:00,
2013-02-03 12:32:00,36.0,5.0,-100.00,North,-999,-999.0,-999.0,26,-99.99,,,-99.99,,2013-02-03 19:32:00,
2013-02-03 12:42:00,36.0,5.0,-100.00,North,-999,-999.0,-999.0,26,-99.99,,,-99.99,,2013-02-03 19:42:00,
2013-02-03 12:52:00,36.0,5.0,-100.00,North,-999,-999.0,-999.0,26,-99.99,,,-99.99,,2013-02-03 19:52:00,
2013-02-03 13:00:00,37.0,1.0,-100.00,North,-999,-999.0,-999.0,20,-99.99,,,-99.99,,2013-02-03 20:00:00,
2013-02-03 13:33:00,37.0,1.0,-100.00,North,-999,-999.0,-999.0,20,-99.99,,,-99.99,,2013-02-03 20:33:00,
2013-02-03 13:42:00,37.0,1.0,-100.00,North,-999,-999.0,-999.0,20,-99.99,,,-99.99,,2013-02-03 20:42:00,
2013-02-03 13:52:00,37.0,1.0,-100.00,North,-999,-999.0,-999.0,20,-99.99,,,-99.99,,2013-02-03 20:52:00,
2013-02-03 14:00:00,35.0,4.0,-100.00,North,-999,-999.0,-999.0,26,-99.99,,,-99.99,,2013-02-03 21:00:00,
2013-02-03 14:33:00,35.0,4.0,-100.00,North,-999,-999.0,-999.0,26,-99.99,,,-99.99,,2013-02-03 21:33:00,
2013-02-03 14:42:00,35.0,4.0,-100.00,North,-999,-999.0,-999.0,26,-99.99,,,-99.99,,2013-02-03 21:42:00,
2013-02-03 14:52:00,35.0,4.0,-100.00,North,-999,-999.0,-999.0,26,-99.99,,,-99.99,,2013-02-03 21:52:00,
2013-02-03 15:00:00,35.0,1.0,-100.00,North,-999,-999.0,-999.0,23,-99.99,,,-99.99,,2013-02-03 22:00:00,
2013-02-03 15:32:00,35.0,1.0,-100.00,North,-999,-999.0,-999.0,23,-99.99,,,-99.99,,2013-02-03 22:32:00,
2013-02-03 15:42:00,35.0,1.0,-100.00,North,-999,-999.0,-999.0,23,-99.99,,,-99.99,,2013-02-03 22:42:00,
2013-02-03 15:52:00,35.0,1.0,-100.00,North,-999,-999.0,-999.0,23,-99.99,,,-99.99,,2013-02-03 22:52:00,
2013-02-03 16:00:00,29.0,2.0,-100.00,North,-999,-999.0,-999.0,30,-99.99,,,-99.99,,2013-02-03 23:00:00,
2013-02-03 16:32:00,29.0,2.0,-100.00,North,-999,-999.0,-999.0,30,-99.99,,,-99.99,,2013-02-03 23:32:00,
2013-02-03 16:42:00,29.0,2.0,-100.00,North,-999,-999.0,-999.0,30,-99.99,,,-99.99,,2013-02-03 23:42:00,
2013-02-03 16:52:00,29.0,2.0,-100.00,North,-999,-999.0,-999.0,30,-99.99,,,-99.99,,2013-02-03 23:52:00,
2013-02-03 17:00:00,25.0,0.0,-100.00,North,-999,-999.0,-999.0,31,-99.99,,,-99.99,,2013-02-04 00:00:00,
2013-02-03 17:32:00,25.0,0.0,-100.00,North,-999,-999.0,-999.0,31,-99.99,,,-99.99,,2013-02-04 00:32:00,
2013-02-03 17:42:00,25.0,0.0,-100.00,North,-999,-999.0,-999.0,31,-99.99,,,-99.99,,2013-02-04 00:42:00,
2013-02-03 17:52:00,25.0,0.0,-100.00,North,-999,-999.0,-999.0,31,-99.99,,,-99.99,,2013-02-04 00:52:00,
2013-02-03 18:00:00,23.0,3.0,-100.00,North,-999,-999.0,-999.0,41,-99.99,,,-99.99,,2013-02-04 01:00:00,
2013-02-03 18:32:00,23.0,3.0,-100.00,North,-999,-999.0,-999.0,41,-99.99,,,-99.99,,2013-02-04 01:32:00,
2013-02-03 18:42:00,23.0,3.0,-100.00,North,-999,-999.0,-999.0,41,-99.99,,,-99.99,,2013-02-04 01:42:00,
2013-02-03 18:52:00,23.0,3.0,-100.00,North,-999,-999.0,-999.0,41,-99.99,,,-99.99,,2013-02-04 01:52:00,
2013-02-03 19:00:00,21.0,5.0,-100.00,North,-999,-999.0,-999.0,50,-99.99,,,-99.99,,2013-02-04 02:00:00,
2013-02-03 19:32:00,21.0,5.0,-100.00,North,-999,-999.0,-999.0,50,-99.99,,,-99.99,,2013-02-04 02:32:00,
2013-02-03 19:42:00,21.0,5.0,-100.00,North,-999,-999.0,-999.0,50,-99.99,,,-99.99,,2013-02-04 02:42:00,
2013-02-03 19:52:00,21.0,5.0,-100.00,North,-999,-999.0,-999.0,50,-99.99,,,-99.99,,2013-02-04 02:52:00,
2013-02-03 20:00:00,21.0,8.0,-100.00,North,-999,-999.0,-999.0,54,-99.99,,,-99.99,,2013-02-04 03:00:00,
2013-02-03 20:32:00,21.0,8.0,-100.00,North,-999,-999.0,-999.0,54,-99.99,,,-99.99,,2013-02-04 03:32:00,
2013-02-03 20:42:00,21.0,8.0,-100.00,North,-999,-999.0,-999.0,54,-99.99,,,-99.99,,2013-02-04 03:42:00,
2013-02-03 20:52:00,21.0,8.0,-100.00,North,-999,-999.0,-999.0,54,-99.99,,,-99.99,,2013-02-04 03:52:00,
2013-02-03 21:00:00,23.0,3.0,-100.00,North,-999,-999.0,-999.0,41,-99.99,,,-99.99,,2013-02-04 04:00:00,
2013-02-03 21:32:00,23.0,3.0,-100.00,North,-999,-999.0,-999.0,41,-99.99,,,-99.99,,2013-02-04 04:32:00,
2013-02-03 21:42:00,23.0,3.0,-100.00,North,-999,-999.0,-999.0,41,-99.99,,,-99.99,,2013-02-04 04:42:00,
2013-02-03 21:52:00,23.0,3.0,-100.00,North,-999,-999.0,-999.0,41,-99.99,,,-99.99,,2013-02-04 04:52:00,
2013-02-03 22:00:00,22.0,5.0,-100.00,North,-999,-999.0,-999.0,47,-99.99,,,-99.99,,2013-02-04 05:00:00,
2013-02-03 22:33:00,22.0,5.0,-100.00,North,-999,-999.0,-999.0,47,-99.99,,,-99.99,,2013-02-04 05:33:00,
2013-02-03 22:42:00,22.0,5.0,-100.00,North,-999,-999.0,-999.0,47,-99.99,,,-99.99,,2013-02-04 05:42:00,
2013-02-03 22:52:00,22.0,5.0,-100.00,North,-999,-999.0,-999.0,47,-99.99,,,-99.99,,2013-02-04 05:52:00,
2013-02-03 23:00:00,21.0,5.0,-100.00,North,-999,-999.0,-999.0,48,-99.99,,,-99.99,,2013-02-04 06:00:00,
2013-02-03 23:32:00,21.0,5.0,-100.00,North,-999,-999.0,-999.0,48,-99.99,,,-99.99,,2013-02-04 06:32:00,
2013-02-03 23:42:00,21.0,5.0,-100.00,North,-999,-999.0,-999.0,48,-99.99,,,-99.99,,2013-02-04 06:42:00,
2013-02-03 23:52:00,21.0,5.0,-100.00,North,-999,-999.0,-999.0,48,-99.99,,,-99.99,,2013-02-04 06:52:00,